Content
SEND FEEDBACK

Daily
Averages
Monthly
Summary
United States of America

BOX ELDER, SOUTH DAKOTA


Home > North America > United States > South Dakota
Elevation: 3170 feet     Latitude: 44 09N     Longitude: 103 06W

WEATHER
 
SELECT A DAY
Number of Records: 204,315;   Date Range: 1/1/95 - 9/18/14
 
SHARE

PRINT THIS DATA

[ ← Previous Day ]
WEATHER ALMANAC - MAY 19, 2013
[ Next Day → ]
[ °C ]   °F
Weather ElementAverageHighLow
Temperature55.4 °F59 °F (2:05 pm)50.9 °F (11:58 pm)
Dewpoint52.7 °F55.4 °F (10:52 am)46.4 °F (10:23 pm)
Humidity91.1 %100 % (1:28 pm)82 % (3:51 pm)
Barometer29.72 in29.76 in (2:29 am)29.65 in (11:58 pm)
Wind Speed18.7 mph29.9 mph (10:43 pm)
Wind Gust41.4 mph (11:58 pm)
Weather ElementAverage
Visibility9.2 mi
Wind DirectionNNW (338.7 °)

Weather ElementTotal
Precipitation0.35 in
Heating Degree Days10.1 (Base 65)
Growing Degree Days5 (Base 50)
Averaged from 122 records on May 19, 2013
WEATHER CONDITIONS BREAKOUT
WIND DIRECTION BREAKOUT
WEATHER BY HOUR - MAY 19, 2013
[ °C ]   °F
Local TimeTemperatureDewpointHumidityBarometerVisibilityWind DirectionWind SpeedGust SpeedPrecipitationEventsConditions
12:58 AM55.4 °F53.6 °F94 %29.70 in10.0 miNNW (330°)20.7 mph26.5 mphOvercast
1:03 AM55.4 °F53.6 °F94 %29.73 in10.0 miNNW (330°)21.9 mph26.5 mphOvercast
1:08 AM55.4 °F53.6 °F94 %29.73 in10.0 miNNW (330°)26.5 mphOvercast
1:23 AM55.4 °F53.6 °F94 %29.74 in10.0 miNNW (340°)20.7 mphOvercast
1:33 AM55.4 °F53.6 °F94 %29.74 in10.0 miNNW (340°)19.6 mphOvercast
1:48 AM55.4 °F53.6 °F94 %29.74 in10.0 miNNW (340°)20.7 mph25.3 mphMostly Cloudy
1:58 AM55.6 °F53.2 °F92 %29.72 in10.0 miNorth (350°)15.0 mph26.5 mphOvercast
2:03 AM55.4 °F53.6 °F94 %29.74 in10.0 miNNW (340°)18.4 mphOvercast
2:12 AM55.4 °F53.6 °F94 %29.75 in10.0 miNW (320°)19.6 mphLight Drizzle
2:17 AM55.4 °F53.6 °F94 %29.75 in10.0 miNNW (340°)18.4 mphRainLight Rain
2:29 AM55.4 °F53.6 °F94 %29.76 in10.0 miNNW (330°)19.6 mph26.5 mphRainLight Rain
2:34 AM55.4 °F53.6 °F94 %29.76 in10.0 miNNW (340°)16.1 mph26.5 mphRainLight Rain
2:39 AM55.4 °F53.6 °F94 %29.76 in10.0 miNorth (350°)17.3 mphRainRain
2:49 AM55.4 °F53.6 °F94 %29.76 in10.0 miNorth (350°)17.3 mphRainRain
2:54 AM55.4 °F53.6 °F94 %29.76 in10.0 miNorth (350°)13.8 mphRainRain
2:58 AM55.4 °F54.0 °F95 %29.73 in10.0 miNorth (350°)11.5 mph0.03 inRainLight Rain
3:03 AM55.4 °F53.6 °F94 %29.75 in10.0 miNNW (340°)17.3 mph20.7 mphRainLight Rain
3:58 AM54.7 °F53.1 °F94 %29.70 in10.0 miNW (320°)13.8 mph0.04 inRainLight Rain
4:58 AM54.9 °F53.4 °F95 %29.71 in10.0 miNorth (350°)13.8 mph0.01 inRainLight Rain
5:18 AM55.4 °F53.6 °F94 %29.73 in10.0 miNorth (350°)15.0 mphOvercast
5:58 AM55.2 °F53.6 °F94 %29.72 in10.0 miNorth (360°)15.0 mph0.00 inOvercast
6:03 AM55.4 °F53.6 °F94 %29.74 in10.0 miNorth (360°)12.7 mphLight Drizzle
6:08 AM55.4 °F53.6 °F94 %29.74 in10.0 miNorth (360°)13.8 mphRainLight Rain
6:13 AM55.4 °F53.6 °F94 %29.74 in10.0 miNorth (360°)12.7 mphRainLight Rain
6:23 AM55.4 °F53.6 °F94 %29.74 in10.0 miNorth (350°)12.7 mphOvercast
6:38 AM55.4 °F53.6 °F94 %29.74 in10.0 miNorth (350°)8.1 mphOvercast
6:48 AM55.4 °F53.6 °F94 %29.74 in10.0 miNorth (350°)9.2 mphOvercast
6:58 AM55.4 °F53.6 °F94 %29.72 in10.0 miNNW (340°)8.1 mph0.00 inOvercast
7:03 AM55.4 °F53.6 °F94 %29.74 in10.0 miNorth (350°)8.1 mphOvercast
7:08 AM55.4 °F53.6 °F94 %29.74 in10.0 miNorth (350°)8.1 mphOvercast
7:58 AM55.9 °F53.4 °F91 %29.71 in10.0 miNNW (340°)13.8 mphOvercast
8:33 AM55.4 °F53.6 °F94 %29.73 in10.0 miNW (320°)16.1 mphOvercast
8:38 AM55.4 °F53.6 °F94 %29.73 in10.0 miNW (320°)15.0 mphOvercast
8:42 AM55.4 °F53.6 °F94 %29.73 in10.0 miNW (320°)13.8 mphOvercast
8:47 AM55.4 °F53.6 °F94 %29.73 in10.0 miNW (320°)18.4 mphOvercast
8:52 AM55.4 °F53.6 °F94 %29.72 in10.0 miNW (320°)17.3 mphOvercast
8:54 AM55.4 °F53.6 °F94 %29.73 in10.0 miNW (320°)13.8 mphRainLight Rain
8:58 AM55.6 °F53.6 °F93 %29.70 in8.0 miNW (320°)17.3 mph0.00 inRainLight Rain
9:00 AM55.4 °F53.6 °F94 %29.72 in6.0 miNW (320°)16.1 mphRainLight Rain
9:10 AM55.4 °F53.6 °F94 %29.72 in4.0 miNNW (330°)17.3 mphRainLight Rain
9:15 AM55.4 °F53.6 °F94 %29.72 in4.0 miNNW (330°)13.8 mphRainLight Rain
9:35 AM55.4 °F53.6 °F94 %29.72 in10.0 miNNW (330°)17.3 mphLight Drizzle
9:37 AM55.4 °F53.6 °F94 %29.72 in10.0 miNNW (330°)17.3 mphOvercast
9:40 AM55.4 °F53.6 °F94 %29.72 in10.0 miNNW (330°)17.3 mphRainLight Rain
9:50 AM55.4 °F53.6 °F94 %29.72 in10.0 miNNW (330°)19.6 mphRainLight Rain
9:55 AM55.4 °F53.6 °F94 %29.72 in10.0 miNNW (330°)20.7 mphRainLight Rain
9:58 AM55.9 °F53.6 °F92 %29.70 in10.0 miNNW (330°)19.6 mph0.01 inRainLight Rain
10:08 AM55.4 °F53.6 °F94 %29.72 in10.0 miNNW (330°)19.6 mphRainLight Rain
10:27 AM55.4 °F53.6 °F94 %29.72 in5.0 miNNW (340°)17.3 mphRainLight Rain
10:32 AM55.4 °F53.6 °F94 %29.72 in4.0 miNNW (330°)13.8 mphRainHeavy Rain
10:37 AM55.4 °F53.6 °F94 %29.72 in4.0 miNNW (330°)15.0 mphRainRain
10:42 AM55.4 °F53.6 °F94 %29.72 in7.0 miNNW (330°)19.6 mph24.2 mphRainLight Rain
10:52 AM57.2 °F55.4 °F94 %29.72 in10.0 miNNW (340°)17.3 mph24.2 mphRainLight Rain
10:57 AM57.2 °F55.4 °F94 %29.72 in10.0 miNNW (340°)15.0 mph26.5 mphRainLight Rain
10:58 AM57.2 °F55.4 °F94 %29.70 in10.0 miNNW (340°)16.1 mph26.5 mph0.03 inRainLight Rain
11:08 AM57.2 °F55.4 °F94 %29.72 in10.0 miNNW (340°)19.6 mph26.5 mphRainLight Rain
11:33 AM57.2 °F53.6 °F88 %29.71 in10.0 miNNW (330°)24.2 mph31.1 mphOvercast
11:37 AM57.2 °F53.6 °F88 %29.70 in10.0 miNNW (330°)19.6 mph31.1 mphLight Drizzle
11:52 AM57.2 °F55.4 °F94 %29.70 in10.0 miNNW (330°)18.4 mph27.6 mphRainLight Rain
11:57 AM57.2 °F55.4 °F94 %29.71 in10.0 miNNW (330°)17.3 mphRainLight Rain
11:58 AM57.2 °F55.4 °F94 %29.70 in10.0 miNNW (340°)20.7 mph27.6 mph0.00 inRainLight Rain
12:04 PM57.2 °F53.6 °F88 %29.71 in10.0 miNNW (340°)23.0 mph28.8 mphOvercast
12:09 PM57.2 °F53.6 °F88 %29.71 in10.0 miNNW (340°)21.9 mph28.8 mphLight Drizzle
12:22 PM57.2 °F53.6 °F88 %29.71 in10.0 miNNW (330°)21.9 mph31.1 mphRainLight Rain
12:27 PM57.2 °F53.6 °F88 %29.71 in9.0 miNNW (340°)24.2 mphRainLight Rain
12:32 PM57.2 °F53.6 °F88 %29.71 in6.0 miNNW (330°)23.0 mphRainLight Rain
12:37 PM55.4 °F53.6 °F94 %29.71 in3.0 miNNW (330°)20.7 mphRainHeavy Rain
12:42 PM55.4 °F53.6 °F94 %29.71 in2.5 miNNW (330°)18.4 mphRainHeavy Rain
12:47 PM55.4 °F53.6 °F94 %29.71 in4.0 miNNW (340°)18.4 mphRainLight Rain
12:58 PM55.9 °F54.5 °F95 %29.70 in7.0 miNorth (350°)17.3 mph0.07 inRainLight Rain
1:03 PM55.4 °F53.6 °F94 %29.71 in4.0 miNNW (340°)18.4 mphRainHeavy Rain
1:13 PM55.4 °F53.6 °F94 %29.71 in4.0 miNNW (340°)15.0 mphRainHeavy Rain
1:28 PM55.4 °F55.4 °F100 %29.71 in3.0 miNNW (330°)12.7 mphRainHeavy Rain
1:38 PM55.4 °F53.6 °F94 %29.71 in6.0 miNNW (330°)11.5 mphRainLight Rain
1:58 PM57.2 °F55.4 °F94 %29.70 in10.0 miNNW (340°)13.8 mph0.14 inRainLight Rain
2:00 PM57.2 °F55.4 °F94 %29.70 in10.0 miNNW (340°)15.0 mph20.7 mphOvercast
2:05 PM59.0 °F55.4 °F88 %29.70 in10.0 miNNW (340°)16.1 mph20.7 mphOvercast
2:15 PM59.0 °F55.4 °F88 %29.71 in10.0 miNorth (350°)13.8 mph23.0 mphOvercast
2:29 PM59.0 °F55.4 °F88 %29.71 in9.0 miNorth (360°)19.6 mph24.2 mphRainLight Rain
2:30 PM59.0 °F55.4 °F88 %29.71 in9.0 miNorth (350°)18.4 mph24.2 mphRainHeavy Rain
2:35 PM57.2 °F55.4 °F94 %29.71 in8.0 miNorth (360°)18.4 mph24.2 mphRainLight Rain
2:40 PM57.2 °F53.6 °F88 %29.71 in10.0 miNorth (350°)19.6 mphRainLight Rain
2:44 PM57.2 °F53.6 °F88 %29.71 in10.0 miNorth (360°)18.4 mphOvercast
2:49 PM57.2 °F53.6 °F88 %29.71 in10.0 miNorth (360°)19.6 mphOvercast
2:58 PM57.9 °F54.3 °F88 %29.68 in10.0 miNorth (360°)19.6 mph0.02 inOvercast
3:03 PM57.2 °F53.6 °F88 %29.71 in10.0 miNorth (350°)18.4 mphOvercast
3:13 PM57.2 °F53.6 °F88 %29.71 in10.0 miNNW (340°)16.1 mphOvercast
3:21 PM57.2 °F53.6 °F88 %29.71 in10.0 miNorth (360°)20.7 mph25.3 mphRainLight Rain
3:31 PM57.2 °F53.6 °F88 %29.71 in10.0 miNorth (360°)19.6 mph25.3 mphOvercast
3:36 PM57.2 °F53.6 °F88 %29.71 in10.0 miNorth (350°)19.6 mph25.3 mphOvercast
3:51 PM57.2 °F51.8 °F82 %29.71 in10.0 miNorth (360°)19.6 mph28.8 mphOvercast
3:56 PM57.2 °F51.8 °F82 %29.71 in10.0 miNorth (350°)21.9 mph28.8 mphOvercast
3:58 PM57.2 °F51.8 °F82 %29.70 in10.0 miNorth (350°)20.7 mph28.8 mph0.00 inOvercast
4:43 PM55.4 °F51.8 °F88 %29.71 in10.0 miNorth (350°)16.1 mphOvercast
4:48 PM55.4 °F51.8 °F88 %29.71 in10.0 miNorth (350°)18.4 mphOvercast
4:58 PM56.5 °F51.6 °F84 %29.68 in10.0 miNorth (360°)21.9 mphOvercast
5:58 PM54.9 °F50.5 °F85 %29.69 in10.0 miNorth (360°)20.7 mph29.9 mphOvercast
6:03 PM53.6 °F50.0 °F88 %29.71 in10.0 miNorth (350°)23.0 mph28.8 mphOvercast
6:33 PM53.6 °F50.0 °F88 %29.71 in10.0 miNNW (340°)25.3 mph31.1 mphOvercast
6:38 PM53.6 °F50.0 °F88 %29.70 in10.0 miNNW (340°)23.0 mph32.2 mphOvercast
6:43 PM53.6 °F50.0 °F88 %29.70 in10.0 miNNW (340°)23.0 mph32.2 mphOvercast
6:53 PM53.6 °F50.0 °F88 %29.71 in10.0 miNNW (340°)24.2 mph32.2 mphOvercast
6:58 PM53.6 °F50.0 °F88 %29.70 in10.0 miNNW (330°)24.2 mph28.8 mphOvercast
7:03 PM53.6 °F50.0 °F88 %29.71 in10.0 miNNW (340°)24.2 mph31.1 mphOvercast
7:06 PM53.6 °F50.0 °F88 %29.71 in10.0 miNNW (340°)25.3 mph33.4 mphOvercast
7:08 PM53.6 °F50.0 °F88 %29.71 in10.0 miNNW (340°)24.2 mph33.4 mphRainLight Rain
7:28 PM51.8 °F50.0 °F94 %29.72 in10.0 miNNW (330°)21.9 mph33.4 mphOvercast
7:48 PM51.8 °F50.0 °F94 %29.72 in10.0 miNNW (330°)19.6 mph29.9 mphOvercast
7:58 PM52.2 °F49.1 °F89 %29.73 in10.0 miNNW (340°)23.0 mph33.4 mph0.00 inOvercast
8:08 PM51.8 °F48.2 °F88 %29.72 in10.0 miNNW (330°)21.9 mph29.9 mphOvercast
8:13 PM51.8 °F48.2 °F88 %29.72 in10.0 miNNW (330°)20.7 mph29.9 mphOvercast
8:18 PM51.8 °F48.2 °F88 %29.72 in10.0 miNNW (330°)20.7 mph29.9 mphOvercast
8:23 PM51.8 °F48.2 °F88 %29.71 in10.0 miNNW (330°)21.9 mphOvercast
8:58 PM51.8 °F48.0 °F87 %29.72 in10.0 miNNW (330°)23.0 mph32.2 mphOvercast
9:33 PM51.8 °F48.2 °F88 %29.72 in10.0 miNNW (330°)24.2 mph33.4 mphOvercast
9:48 PM51.8 °F48.2 °F88 %29.72 in10.0 miNW (320°)24.2 mph34.5 mphOvercast
9:58 PM51.6 °F47.3 °F85 %29.72 in10.0 miNNW (330°)24.2 mph31.1 mphOvercast
10:08 PM51.8 °F48.2 °F88 %29.71 in10.0 miNW (320°)25.3 mph32.2 mphOvercast
10:23 PM51.8 °F46.4 °F82 %29.70 in10.0 miNW (320°)28.8 mph36.8 mphOvercast
10:43 PM51.8 °F46.4 °F82 %29.68 in10.0 miNNW (330°)29.9 mph38.0 mphOvercast
10:58 PM51.8 °F46.4 °F82 %29.67 in10.0 miNW (320°)28.8 mph39.1 mphOvercast
11:58 PM50.9 °F46.6 °F85 %29.65 in10.0 miNW (320°)26.5 mph41.4 mphOvercast
Hourly data recorded from KRCA, located miles away from Box Elder, South Dakota







STORIES FROM OUR PARTNERS